Tracking 34719 objects as of 12-Jul-2026
HD Live streaming from Space Station
objects crossing your sky now

ARIANE 5 R/B

Track ARIANE 5 R/B now!


NORAD ID: 28904
Int'l Code: 2005-046C
Perigee: 403.2 km
Apogee: 35,342.7 km
Inclination: 7.1 °
Period: 626.1 minutes
Semi major axis: 24243 km
RCS: 36.3411 m2 (large)
Launch date: November 16, 2005
Source: France (FR)
Launch site: FRENCH GUIANA (FRGUI)

Note: This is a ROCKET BODY
Your satellite tracking list
Your tracking list is empty




NASA's NSSDC Master Catalog

Two Line Element Set (TLE):
1 28904U 05046C   26191.46048920  .00000104  00000-0  52723-3 0  9997
2 28904   7.0776  93.3169 7205835 355.4839   0.5680  2.29984337172815
Source of the keplerian elements: AFSPC